Weather History for Abbotsford, BC

Change the Weather History Date:

Tuesday, March 19, 2013

  Actual Average Record
Temperature  
Mean Temperature 40 °F -  
Max Temperature 48 °F 55 °F 62 °F (1999)
Min Temperature 32 °F 38 °F 26 °F (2002)
Degree Days  
Heating Degree Days 25    
Moisture  
Dew Point 32 °F    
Average Humidity 73    
Maximum Humidity 93    
Minimum Humidity 44    
Precipitation  
Precipitation 0.16 in 0.16 in - ()
Sea Level Pressure  
Sea Level Pressure 30.01 in    
Wind  
Wind Speed 7 mph ()    
Max Wind Speed 15 mph    
Max Gust Speed 21 mph    
Visibility 13.6 miles    
Events Rain    
Averages and records for this station are not official NWS values.
T = Trace of Precipitation, MM = Missing Value Source: Averaged Metar Reports

Daily Weather History Graph

Daily Weather History Graph

Search for Another Location

Airport:

Trip Planner

Search our weather history database for the weather conditions in past years. The results will help you decide how hot, cold, wet, or windy it might be!

Date:

Astronomy

Mar. 19, 2013 Rise Set
Actual Time 7:13 AM PDT 7:21 PM PDT
Civil Twilight 6:42 AM PDT 7:53 PM PDT
Nautical Twilight 6:04 AM PDT 8:30 PM PDT
Astronomical Twilight 5:26 AM PDT 9:08 PM PDT
Moon 11:40 AM PDT 2:40 AM PDT
Length of Visible Light 13h 10m
Length of Day
12h 07m
Waxing Crescent, 51% of the Moon is Illuminated
Mar 19
Waxing Crescent
Mar 27
Full
Apr 2
Last Quarter
Apr 10
New
Apr 18
First Quarter

Hourly Weather History & Observations

Time (PDT) Temp. Windchill Dew Point Humidity Pressure Visibility Wind Dir Wind Speed Gust Speed Precip Events Conditions
12:00 AM 35.6 °F 29.9 °F 30.2 °F 81% 30.26 in 15.0 mi NNE 6.9 mph - N/A   Scattered Clouds
1:00 AM 35.6 °F 30.7 °F 30.2 °F 81% 30.25 in 15.0 mi NNE 5.8 mph - N/A   Partly Cloudy
2:00 AM 33.8 °F 28.6 °F 30.2 °F 87% 30.24 in 15.0 mi NNE 5.8 mph - N/A   Partly Cloudy
3:00 AM 33.8 °F 27.0 °F 30.2 °F 87% 30.23 in 15.0 mi NNE 8.1 mph - N/A   Clear
4:00 AM 33.8 °F 28.6 °F 30.2 °F 87% 30.22 in 15.0 mi NNE 5.8 mph - N/A   Clear
5:00 AM 33 °F - 30 °F 83% 30.21 in 15 mi NNE 6.9 mph - -  
5:00 AM 33.8 °F 27.0 °F 30.2 °F 87% 30.20 in 15.0 mi NNE 8.1 mph - N/A   Clear
6:00 AM 33.8 °F 26.4 °F 30.2 °F 87% 30.18 in 15.0 mi NNE 9.2 mph - N/A   Clear
6:33 AM 33.8 °F 27.0 °F 30.2 °F 87% 30.17 in 15.0 mi NNE 8.1 mph - N/A   Scattered Clouds
7:00 AM 33.8 °F 28.6 °F 30.2 °F 87% 30.16 in 30.0 mi NNE 5.8 mph - N/A   Mostly Cloudy
8:00 AM 35.6 °F 29.9 °F 30.2 °F 81% 30.13 in 30.0 mi NE 6.9 mph - N/A   Overcast
9:00 AM 37.4 °F 33.8 °F 32.0 °F 81% 30.11 in 30.0 mi NNE 4.6 mph - N/A   Overcast
10:00 AM 41.0 °F 34.3 °F 28.4 °F 61% 30.09 in 30.0 mi ENE 11.5 mph 20.7 mph N/A   Overcast
11:00 AM 43 °F - 29 °F 46% 30.07 in 28 mi East 11.5 mph - -   Overcast
11:00 AM 42.8 °F 35.4 °F 28.4 °F 57% 30.07 in 30.0 mi East 15.0 mph - N/A   Overcast
12:00 PM 44.6 °F 39.7 °F 30.2 °F 57% 30.04 in 30.0 mi ENE 9.2 mph - N/A   Overcast
1:00 PM 46.4 °F 41.1 °F 30.2 °F 53% 30.00 in 30.0 mi ENE 11.5 mph - N/A   Overcast
2:00 PM 48.2 °F - 30.2 °F 50% 29.96 in 30.0 mi ENE 9.2 mph - N/A   Overcast
3:00 PM 48.2 °F - 30.2 °F 50% 29.92 in 25.0 mi East 9.2 mph - N/A   Overcast
4:00 PM 48.2 °F - 32.0 °F 54% 29.90 in 25.0 mi East 8.1 mph - N/A   Overcast
4:29 PM 48.2 °F - 32.0 °F 54% 29.88 in 25.0 mi East 8.1 mph - N/A Rain Light Rain
5:00 PM 48 °F - 33 °F 44% 29.88 in 19 mi East 12.7 mph - - Rain Light Rain
5:00 PM 48.2 °F - 32.0 °F 54% 29.88 in 20.0 mi East 12.7 mph - N/A Rain Light Rain
6:00 PM 46.4 °F 45.2 °F 35.6 °F 66% 29.86 in 10.0 mi ESE 3.5 mph - N/A Rain Light Rain
7:00 PM 42.8 °F 38.0 °F 39.2 °F 87% 29.81 in 10.0 mi NNE 8.1 mph - N/A Rain Light Rain
8:00 PM 41.0 °F 35.2 °F 39.2 °F 93% 29.78 in 10.0 mi NNE 9.2 mph - N/A Rain Light Rain
9:00 PM 41.0 °F 35.8 °F 39.2 °F 93% 29.72 in 10.0 mi NE 8.1 mph - N/A Rain Light Rain
10:00 PM 41.0 °F 34.7 °F 37.4 °F 87% 29.68 in 10.0 mi ENE 10.4 mph 18.4 mph N/A Rain Light Rain
11:00 PM 41 °F - 38 °F 84% 29.63 in 10 mi NE 11.5 mph - - Rain Light Rain
11:00 PM 41.0 °F 35.2 °F 37.4 °F 87% 29.63 in 10.0 mi NE 9.2 mph 17.3 mph N/A Rain Light Rain